Location: Estes Par
(40.3770°N, 105.5210°W)
Time: 07:55:00
(UTC-06:00)

OTV 5 (USA 277) - Pass Details

Date: 12 October 2017
Orbit: 404 x 417 km, 43.0° (Epoch: 07 September)

Event Time Altitude Azimuth Distance (km) Brightness Sun altitude
Rises 19:09:06 0° 246° (WSW) 2,341 ? -9.0°
Reaches altitude 10° 19:11:12 10° 244° (WSW) 1,481 ? -9.4°
Maximum altitude 19:14:32 73° 160° (SSE) 435 ? -10.0°
Enters shadow 19:17:10 15° 76° (ENE) 1,196 ? -10.5°
